Time,TemperatureF,DewpointF,PressureIn,WindDirection,WindDirectionDegrees,WindSpeedMPH,WindSpeedGustMPH,Humidity,HourlyPrecipIn,Conditions,Clouds,dailyrainin,SoftwareType,DateUTC
2013-07-20 00:01:00,65.0,57.0,29.98,NNW,338,2.0,5.0,76,0.00,,,0.00,,2013-07-20 07:01:00,
2013-07-20 00:12:00,64.0,57.0,29.99,NNW,332,2.0,3.0,77,0.00,,,0.00,,2013-07-20 07:12:00,
2013-07-20 00:33:00,63.0,56.0,29.99,WNW,286,1.0,1.0,78,0.00,,,0.00,,2013-07-20 07:33:00,
2013-07-20 00:44:00,63.0,56.0,30.00,West,263,0.0,0.0,79,0.00,,,0.00,,2013-07-20 07:44:00,
2013-07-20 00:53:00,62.0,56.0,29.99,WNW,292,2.0,2.0,81,0.00,,,0.00,,2013-07-20 07:53:00,
2013-07-20 01:01:00,62.0,56.0,30.00,West,276,2.0,3.0,81,0.00,,,0.00,,2013-07-20 08:01:00,
2013-07-20 01:11:00,62.0,56.0,30.00,SSW,202,0.0,0.0,82,0.00,,,0.00,,2013-07-20 08:11:00,
2013-07-20 01:44:00,61.0,56.0,30.00,WNW,289,1.0,1.0,84,0.00,,,0.00,,2013-07-20 08:44:00,
2013-07-20 01:52:00,60.0,55.0,30.00,West,278,1.0,1.0,84,0.00,,,0.00,,2013-07-20 08:52:00,
2013-07-20 02:01:00,60.0,55.0,30.00,WNW,284,1.0,2.0,84,0.00,,,0.00,,2013-07-20 09:01:00,
2013-07-20 02:11:00,60.0,56.0,30.00,NW,321,2.0,3.0,86,0.00,,,0.00,,2013-07-20 09:11:00,
2013-07-20 02:33:00,59.0,55.0,30.00,WNW,292,0.0,0.0,86,0.00,,,0.00,,2013-07-20 09:33:00,
2013-07-20 02:43:00,59.0,55.0,30.00,West,274,0.0,0.0,87,0.00,,,0.00,,2013-07-20 09:43:00,
2013-07-20 02:53:00,59.0,55.0,30.00,WSW,257,0.0,0.0,88,0.00,,,0.00,,2013-07-20 09:53:00,
2013-07-20 03:01:00,58.0,54.0,30.00,WNW,282,0.0,1.0,88,0.00,,,0.00,,2013-07-20 10:01:00,
2013-07-20 03:11:00,58.0,54.0,30.00,NW,309,1.0,2.0,88,0.00,,,0.00,,2013-07-20 10:11:00,
2013-07-20 03:32:00,57.0,54.0,30.00,West,276,2.0,3.0,89,0.00,,,0.00,,2013-07-20 10:32:00,
2013-07-20 03:42:00,57.0,54.0,30.00,WNW,297,1.0,3.0,89,0.00,,,0.00,,2013-07-20 10:42:00,
2013-07-20 03:52:00,57.0,54.0,30.00,West,281,2.0,3.0,90,0.00,,,0.00,,2013-07-20 10:52:00,
2013-07-20 04:01:00,57.0,54.0,30.00,West,266,1.0,1.0,90,0.00,,,0.00,,2013-07-20 11:01:00,
2013-07-20 04:11:00,56.0,53.0,30.01,West,272,2.0,2.0,91,0.00,,,0.00,,2013-07-20 11:11:00,
2013-07-20 04:21:00,56.0,54.0,30.00,West,273,0.0,0.0,92,0.00,,,0.00,,2013-07-20 11:21:00,
2013-07-20 04:32:00,56.0,54.0,30.00,WNW,284,1.0,1.0,92,0.00,,,0.00,,2013-07-20 11:32:00,
2013-07-20 04:43:00,56.0,54.0,30.01,NNW,331,2.0,2.0,92,0.00,,,0.00,,2013-07-20 11:43:00,
2013-07-20 04:52:00,56.0,54.0,30.01,North,350,1.0,4.0,92,0.00,,,0.00,,2013-07-20 11:52:00,
2013-07-20 05:01:00,56.0,54.0,30.01,North,6,2.0,2.0,92,0.00,,,0.00,,2013-07-20 12:01:00,
2013-07-20 05:11:00,55.0,53.0,30.01,North,1,2.0,2.0,93,0.00,,,0.00,,2013-07-20 12:11:00,
2013-07-20 05:32:00,55.0,53.0,30.01,WNW,288,0.0,0.0,93,0.00,,,0.00,,2013-07-20 12:32:00,
2013-07-20 05:52:00,54.0,52.0,30.01,WNW,288,0.0,0.0,94,0.00,,,0.00,,2013-07-20 12:52:00,
2013-07-20 06:01:00,54.0,52.0,30.01,WNW,288,0.0,0.0,94,0.00,,,0.00,,2013-07-20 13:01:00,
2013-07-20 06:11:00,53.0,52.0,30.01,WNW,288,0.0,0.0,95,0.00,,,0.00,,2013-07-20 13:11:00,
2013-07-20 06:22:00,53.0,52.0,30.01,WNW,288,0.0,0.0,95,0.00,,,0.00,,2013-07-20 13:22:00,
2013-07-20 06:43:00,53.0,52.0,30.02,NW,305,1.0,1.0,95,0.00,,,0.00,,2013-07-20 13:43:00,
2013-07-20 06:52:00,53.0,52.0,30.02,NW,320,1.0,2.0,95,0.00,,,0.00,,2013-07-20 13:52:00,
2013-07-20 07:11:00,53.0,52.0,30.02,NW,315,0.0,0.0,95,0.00,,,0.00,,2013-07-20 14:11:00,
2013-07-20 07:32:00,53.0,52.0,30.02,WNW,291,0.0,0.0,95,0.00,,,0.00,,2013-07-20 14:32:00,
2013-07-20 07:43:00,53.0,52.0,30.02,NNW,342,0.0,2.0,95,0.00,,,0.00,,2013-07-20 14:43:00,
2013-07-20 07:52:00,53.0,52.0,30.03,North,355,3.0,4.0,95,0.00,,,0.00,,2013-07-20 14:52:00,
2013-07-20 08:11:00,54.0,53.0,30.03,ENE,64,0.0,0.0,95,0.00,,,0.00,,2013-07-20 15:11:00,
2013-07-20 08:33:00,54.0,52.0,30.03,NNW,329,2.0,4.0,94,0.00,,,0.00,,2013-07-20 15:33:00,
2013-07-20 08:44:00,55.0,53.0,30.03,North,11,3.0,7.0,93,0.00,,,0.00,,2013-07-20 15:44:00,
2013-07-20 08:52:00,55.0,53.0,30.02,NW,311,2.0,4.0,92,0.00,,,0.00,,2013-07-20 15:52:00,
2013-07-20 09:01:00,56.0,54.0,30.02,NNW,338,2.0,4.0,92,0.00,,,0.00,,2013-07-20 16:01:00,
2013-07-20 09:11:00,56.0,54.0,30.02,WNW,296,3.0,5.0,92,0.00,,,0.00,,2013-07-20 16:11:00,
2013-07-20 09:32:00,57.0,54.0,30.03,NW,316,3.0,4.0,91,0.00,,,0.00,,2013-07-20 16:32:00,
2013-07-20 09:43:00,57.0,55.0,30.03,NW,309,3.0,3.0,92,0.00,,,0.00,,2013-07-20 16:43:00,
2013-07-20 09:52:00,57.0,54.0,30.02,NW,325,3.0,3.0,91,0.00,,,0.00,,2013-07-20 16:52:00,
2013-07-20 10:02:00,58.0,55.0,30.02,NW,324,2.0,4.0,91,0.00,,,0.00,,2013-07-20 17:02:00,
2013-07-20 10:11:00,58.0,55.0,30.02,NW,311,2.0,3.0,91,0.00,,,0.00,,2013-07-20 17:11:00,
2013-07-20 10:43:00,60.0,56.0,30.02,NW,316,3.0,5.0,86,0.00,,,0.00,,2013-07-20 17:43:00,
2013-07-20 10:53:00,61.0,56.0,30.01,NNW,338,4.0,6.0,84,0.00,,,0.00,,2013-07-20 17:53:00,
2013-07-20 11:01:00,61.0,55.0,30.01,NNW,335,4.0,8.0,82,0.00,,,0.00,,2013-07-20 18:01:00,
2013-07-20 11:11:00,63.0,56.0,30.01,NNW,347,4.0,4.0,78,0.00,,,0.00,,2013-07-20 18:11:00,
2013-07-20 11:43:00,66.0,57.0,29.99,NNW,338,5.0,8.0,74,0.00,,,0.00,,2013-07-20 18:43:00,
2013-07-20 11:52:00,66.0,57.0,29.99,NNW,343,4.0,6.0,73,0.00,,,0.00,,2013-07-20 18:52:00,
2013-07-20 12:01:00,67.0,57.0,29.99,NNW,348,5.0,10.0,71,0.00,,,0.00,,2013-07-20 19:01:00,
2013-07-20 12:11:00,68.0,58.0,29.98,North,0,3.0,4.0,70,0.00,,,0.00,,2013-07-20 19:11:00,
2013-07-20 12:22:00,68.0,57.0,29.98,NNW,344,3.0,6.0,68,0.00,,,0.00,,2013-07-20 19:22:00,
2013-07-20 12:43:00,70.0,58.0,29.98,NW,314,2.0,5.0,66,0.00,,,0.00,,2013-07-20 19:43:00,
2013-07-20 12:52:00,69.0,57.0,29.97,NNW,343,4.0,7.0,66,0.00,,,0.00,,2013-07-20 19:52:00,
2013-07-20 13:32:00,72.0,58.0,29.96,North,353,5.0,9.0,62,0.00,,,0.00,,2013-07-20 20:32:00,
2013-07-20 13:43:00,72.0,58.0,29.95,NNW,338,5.0,7.0,61,0.00,,,0.00,,2013-07-20 20:43:00,
2013-07-20 14:01:00,74.0,57.0,29.95,North,356,6.0,9.0,56,0.00,,,0.00,,2013-07-20 21:01:00,
2013-07-20 14:11:00,74.0,58.0,29.95,NNW,336,5.0,6.0,57,0.00,,,0.00,,2013-07-20 21:11:00,
2013-07-20 14:32:00,74.0,57.0,29.94,NNW,332,6.0,11.0,55,0.00,,,0.00,,2013-07-20 21:32:00,
2013-07-20 14:42:00,75.0,58.0,29.94,NW,323,4.0,5.0,55,0.00,,,0.00,,2013-07-20 21:42:00,
2013-07-20 14:52:00,76.0,58.0,29.93,NNW,331,6.0,6.0,54,0.00,,,0.00,,2013-07-20 21:52:00,
2013-07-20 15:01:00,75.0,58.0,29.93,NNW,346,7.0,7.0,55,0.00,,,0.00,,2013-07-20 22:01:00,
2013-07-20 15:21:00,76.0,58.0,29.93,NW,325,6.0,9.0,54,0.00,,,0.00,,2013-07-20 22:21:00,
2013-07-20 15:32:00,76.0,57.0,29.93,NNW,343,6.0,9.0,52,0.00,,,0.00,,2013-07-20 22:32:00,
2013-07-20 15:52:00,77.0,57.0,29.92,NNW,346,6.0,6.0,50,0.00,,,0.00,,2013-07-20 22:52:00,
2013-07-20 16:01:00,78.0,58.0,29.92,NW,320,7.0,9.0,50,0.00,,,0.00,,2013-07-20 23:01:00,
2013-07-20 16:11:00,78.0,58.0,29.91,North,354,8.0,12.0,50,0.00,,,0.00,,2013-07-20 23:11:00,
2013-07-20 16:32:00,78.0,57.0,29.90,NNW,342,6.0,12.0,48,0.00,,,0.00,,2013-07-20 23:32:00,
2013-07-20 16:43:00,78.0,56.0,29.90,NNW,344,6.0,9.0,47,0.00,,,0.00,,2013-07-20 23:43:00,
2013-07-20 16:53:00,79.0,55.0,29.89,NW,323,6.0,12.0,44,0.00,,,0.00,,2013-07-20 23:53:00,
2013-07-20 17:01:00,79.0,56.0,29.89,NE,35,6.0,12.0,45,0.00,,,0.00,,2013-07-21 00:01:00,
2013-07-20 17:11:00,79.0,55.0,29.89,NNW,346,6.0,9.0,44,0.00,,,0.00,,2013-07-21 00:11:00,
2013-07-20 17:42:00,79.0,55.0,29.88,NNW,347,5.0,5.0,43,0.00,,,0.00,,2013-07-21 00:42:00,
2013-07-20 18:01:00,79.0,55.0,29.88,North,350,6.0,9.0,44,0.00,,,0.00,,2013-07-21 01:01:00,
2013-07-20 18:11:00,79.0,55.0,29.88,NW,318,5.0,9.0,44,0.00,,,0.00,,2013-07-21 01:11:00,
2013-07-20 18:32:00,79.0,56.0,29.87,NW,319,3.0,4.0,45,0.00,,,0.00,,2013-07-21 01:32:00,
2013-07-20 18:42:00,-999.0,-99.9,29.87,NNW,345,5.0,6.0,-999,0.00,,,-99.99,,2013-07-21 01:42:00,
2013-07-20 19:01:00,78.0,56.0,29.87,NW,318,4.0,5.0,46,0.00,,,0.00,,2013-07-21 02:01:00,
2013-07-20 19:11:00,78.0,56.0,29.87,NW,321,4.0,6.0,46,0.00,,,0.00,,2013-07-21 02:11:00,
2013-07-20 19:22:00,78.0,57.0,29.87,NNW,344,3.0,7.0,48,0.00,,,0.00,,2013-07-21 02:22:00,
2013-07-20 19:32:00,77.0,56.0,29.87,NNW,340,5.0,6.0,48,0.00,,,0.00,,2013-07-21 02:32:00,
2013-07-20 19:42:00,77.0,56.0,29.87,NNW,347,3.0,4.0,49,0.00,,,0.00,,2013-07-21 02:42:00,
2013-07-20 19:52:00,77.0,56.0,29.87,NE,35,5.0,7.0,49,0.00,,,0.00,,2013-07-21 02:52:00,
2013-07-20 20:01:00,77.0,57.0,29.87,NNE,31,3.0,4.0,50,0.00,,,0.00,,2013-07-21 03:01:00,
2013-07-20 20:11:00,77.0,58.0,29.87,NNE,33,4.0,5.0,52,0.00,,,0.00,,2013-07-21 03:11:00,
2013-07-20 20:32:00,76.0,59.0,29.87,NNE,19,2.0,4.0,55,0.00,,,0.00,,2013-07-21 03:32:00,
2013-07-20 20:42:00,76.0,59.0,29.87,NNE,26,3.0,4.0,56,0.00,,,0.00,,2013-07-21 03:42:00,
2013-07-20 21:01:00,75.0,60.0,29.87,NW,319,1.0,2.0,59,0.00,,,0.00,,2013-07-21 04:01:00,
2013-07-20 21:11:00,74.0,59.0,29.88,NNW,340,1.0,3.0,60,0.00,,,0.00,,2013-07-21 04:11:00,
2013-07-20 21:32:00,72.0,59.0,29.88,NW,325,3.0,5.0,64,0.00,,,0.00,,2013-07-21 04:32:00,
2013-07-20 21:43:00,72.0,60.0,29.88,North,349,2.0,3.0,66,0.00,,,0.00,,2013-07-21 04:43:00,
2013-07-20 21:53:00,70.0,59.0,29.89,NE,35,2.0,3.0,68,0.00,,,0.00,,2013-07-21 04:53:00,
2013-07-20 22:01:00,70.0,59.0,29.89,NNW,340,2.0,2.0,69,0.00,,,0.00,,2013-07-21 05:01:00,
2013-07-20 22:11:00,69.0,59.0,29.90,NNW,345,2.0,3.0,71,0.00,,,0.00,,2013-07-21 05:11:00,
2013-07-20 22:32:00,68.0,59.0,29.90,NNW,340,2.0,2.0,72,0.00,,,0.00,,2013-07-21 05:32:00,
2013-07-20 22:42:00,68.0,59.0,29.90,NNW,345,2.0,3.0,73,0.00,,,0.00,,2013-07-21 05:42:00,
2013-07-20 22:52:00,67.0,59.0,29.90,NNW,330,2.0,3.0,75,0.00,,,0.00,,2013-07-21 05:52:00,
2013-07-20 23:01:00,67.0,58.0,29.90,NNW,343,3.0,4.0,74,0.00,,,0.00,,2013-07-21 06:01:00,
2013-07-20 23:11:00,67.0,58.0,29.90,NNW,338,3.0,3.0,74,0.00,,,0.00,,2013-07-21 06:11:00,
2013-07-20 23:32:00,66.0,58.0,29.89,NW,314,2.0,2.0,75,0.00,,,0.00,,2013-07-21 06:32:00,
2013-07-20 23:42:00,66.0,59.0,29.89,NW,321,2.0,3.0,77,0.00,,,0.00,,2013-07-21 06:42:00,
2013-07-20 23:52:00,65.0,58.0,29.89,NW,324,2.0,3.0,77,0.00,,,0.00,,2013-07-21 06:52:00,